Flag Weather past 2 weeks in Neustadt am Rübenberge, Lower Saxony, Germany

Now
48 °F

Fog.


Feels Like: 47 °F
Forecast: 50 / 65 °F
Wind: 3 mph from South

Location: Wunstorf Airport

Current Time: Oct 31, 2014 at 6:13:19 AM

Latest Report: Oct 31, 2014 at 5:20 AM


Visibility: 2 mi

Pressure: 30.21 "Hg

Humidity: 100%

Dew point: 48 °F

Location of Neustadt am RübenbergeLocation

Historic Weather in Neustadt am Rübenberge — Graph

°F

Neustadt am Rübenberge temperature yesterday

Maximum temperature yesterday: 54 °F (at 2:20 PM)
Minimum temperature yesterday: 48 °F (at 12:20 AM)
Average temperature yesterday: 50 °F

Past Weeks' High & Low Weather Summary

 TemperatureHumidityPressure
High73 °F (Oct 19, 2:20 PM)100% (Oct 16, 6:20 AM)30.27 "Hg (Oct 16, 6:20 AM)
Low37 °F (Oct 28, 6:20 AM)57% (Oct 19, 4:20 PM)29.42 "Hg (Oct 21, 6:20 PM)
Average53 °F88%30.02 "Hg
* Reported Oct 16 5:20 AM — Oct 31 4:20 AM, Neustadt am Rübenberge, Weather by CustomWeather, © 2014

Note: Actual official high and low records may vary slightly from our data, if they occured in-between our weather recording intervals... More about our weather records

Advertising

Neustadt am Rübenberge weather history for previous 24 hours

 ConditionsComfort  
Time TempWeatherWind HumidityBarometerVisibility
4:20 AM
Oct 31
50 °FCool.3 mph94%30.21 "Hg0 mi
3:20 AM48 °FCool.2 mph100%30.21 "Hg0 mi
2:20 AM50 °FCool.1 mph100%30.21 "Hg0 mi
1:20 AM50 °FCool.2 mph94%30.21 "Hg1 mi
12:20 AM52 °FCool.No wind94%30.21 "Hg2 mi
11:20 PM
Oct 30
52 °FCool.5 mph100%30.21 "Hg3 mi
10:20 PM52 °FCool.2 mph94%30.24 "Hg3 mi
9:20 PM52 °FCool.7 mph100%30.24 "Hg4 mi
8:20 PM52 °FCool.6 mph100%30.24 "Hg4 mi
7:20 PM52 °FPassing clouds.5 mph100%30.24 "Hg5 mi
6:48 PM52 °FPartly cloudy.5 mph94%30.24 "Hg5 mi
6:20 PM52 °FPassing clouds.6 mph94%30.24 "Hg5 mi
6:00 PM52 °FPassing clouds.6 mph94%30.24 "Hg5 mi
5:20 PM52 °FPassing clouds.5 mph94%30.24 "Hg4 mi
4:20 PM52 °FPartly sunny.6 mph94%30.24 "Hg5 mi
3:20 PM54 °FBroken clouds.5 mph88%30.24 "Hg5 mi
2:20 PM54 °FPartly sunny.6 mph88%30.24 "HgN/A
1:20 PM52 °FPartly sunny.6 mph94%30.24 "HgN/A
12:20 PM52 °FBroken clouds.5 mph94%30.24 "HgN/A
11:20 AM52 °FFog.5 mph94%30.24 "Hg3 mi
10:49 AM50 °FFog.3 mph94%30.24 "Hg3 mi
10:20 AM50 °FFog.3 mph94%30.24 "Hg3 mi
9:20 AM48 °FFog.3 mph100%30.21 "Hg3 mi
8:20 AM48 °FFog.5 mph100%30.21 "Hg2 mi
7:20 AM48 °FFog.3 mph100%30.21 "Hg1 mi
6:20 AM48 °FFog.No wind100%30.18 "Hg1 mi
Weather by CustomWeather, © 2014

See weather overviewHow to use our weather pages